Location: East Guldeford
(50.9500°N, 0.7500°E)
Time: 18:36:41
(UTC+00:00)

Cosmos 1862 Rocket - Pass Details

Date: 12 May 2021
Orbit: 604 x 633 km, 82.5° (Epoch: 16 June)

Event Time Altitude Azimuth Distance (km) Brightness Sun altitude
Exits shadow 22:27:34 39° 143° (SE) 917 3.9 -18.2°
Maximum altitude 22:28:44 52° 95° (E) 762 3.8 -18.2°
Drops below altitude 10° 22:32:57 10° 19° (NNE) 1,965 6.8 -18.5°
Sets 22:35:13 0° 15° (NNE) 2,874 7.9 -18.6°
